星链-33601 (STARLINK-33601)

导读 | 豆包AI

STARLINK-33601是美国星链项目中的一颗卫星,于2025年1月21日发射升空,隶属于SpaceX公司打造的星链卫星互联网星座。星链计划旨在通过大规模卫星组网,为全球提供覆盖广泛、低延迟的高速互联网服务,该卫星的发射是美国推进星链星座部署、完善全球卫星互联网覆盖的其中一步。

Basic Information
目录编号:
62768
目录名称:
STARLINK-33601
国际标识:
2025-015L
轨道中心:
EARTH
卫星名称:
星链-33601
卫星全名:
星链-33601 (STARLINK-33601)
卫星状态:
在轨 (已飞行418 天)
发射日期:
2025-01-21 UTC
国别 :
美国 (US)
星等 :
--
Orbit Information
数据来源 国际轨道数据 AOE轨道数据
星历时间 2026-03-15T06:12:08+0800
6小时前
查看轨道信息
2026-03-12T15:00:00+0800
2天前
查看轨道信息
半长轴 6853.299km 6853.388km
偏心率 0.0002055 0.0001886
轨道倾角 53.160° 53.163°
近地点辐角 57.726° 56.949°
升交点赤经 298.068° 310.305°
平近点角 302.394° 188.272°
近地点 473.753km 473.958km
远地点 476.571km 476.544km
周期 94.104分钟 94.106分钟
每日圈数 15.30218 15.30188
Detailed Information
固有亮度:
5
最大亮度:
2.5
卫星平台:
Starlink V1.0
覆盖范围:
全球
运营商:
太空探索技术公司
运营商所在国:
美国
制造商(研发单位):
太空探索技术公司
制造商所在国:
美国
使用方式:
暂无
Satellite Introduction
Starlink 计划是 SpaceX 推出的全球卫星互联网项目,通过发射低轨道卫星,为全球尤其是偏远地区提供高速、低延迟的互联网服务。自 2019 年起,Starlink 已部署数千颗卫星,旨在缩小全球数字鸿沟,推动互联网普及。该项目还为军事、航空等行业提供通信支持,带来广泛经济效益。
2D Orbit Map
3D Orbit Map
Orbit Altitude Analysis Chart
Orbit Inclination Analysis Chart
Orbit Comprehensive Analysis Chart
View Comprehensive Chart